Fond du Lac, WI

9:31 AM CDT on May 24, 2018 (GMT -0500)
Fond du Lac County

Weather History for KFLD - January, 2013

Change the Weather History Date:

Saturday, January 12, 2013

  Actual Average Record
Temperature  
Mean Temperature 36 °F -  
Max Temperature 46 °F 23 °F 51 °F (2006)
Min Temperature 24 °F 7 °F -17 °F (1977)
Degree Days  
Heating Degree Days 30    
Moisture  
Dew Point 27 °F    
Average Humidity 71    
Maximum Humidity 89    
Minimum Humidity 61    
Precipitation  
Precipitation 0.00 in - - ()
Sea Level Pressure  
Sea Level Pressure 29.80 in    
Wind  
Wind Speed 15 mph (WSW)    
Max Wind Speed 22 mph    
Max Gust Speed 31 mph    
Visibility 10 miles    
Events      
Averages and records for this station are not official NWS values.
T = Trace of Precipitation, MM = Missing Value Source: NWS Daily Summary

Daily Weather History Graph

Daily Weather History Graph

Search for Another Location

Airport or City:

Astronomy

Jan. 12, 2013 Rise Set
Actual Time 7:25 AM CST 4:39 PM CST
Civil Twilight 6:53 AM CST 5:11 PM CST
Nautical Twilight 6:18 AM CST 5:47 PM CST
Astronomical Twilight 5:43 AM CST 6:21 PM CST
Moon 7:41 AM CST (1/12) 6:11 PM CST (1/12)
Length of Visible Light 10h 17m
Length of Day
9h 13m
New Moon, 1% of the Moon is Illuminated
Jan 12
New Moon
Jan 18
First Quarter
Jan 26
Full
Feb 3
Last Quarter
Feb 10
New

Hourly Weather History & Observations

Time (CST) Temp. Windchill Dew Point Humidity Pressure Visibility Wind Dir Wind Speed Gust Speed Precip Events Conditions
12:53 AM 43.0 °F 36.0 °F 39.9 °F 89% 29.60 in 10.0 mi South 13.8 mph - N/A   Clear
1:53 AM 45.0 °F 37.9 °F 39.9 °F 82% 29.60 in 10.0 mi SSW 16.1 mph 25.3 mph N/A   Clear
2:53 AM 45.0 °F 37.4 °F 39.9 °F 82% 29.59 in 10.0 mi SSW 18.4 mph 26.5 mph N/A   Clear
3:53 AM 46.9 °F - 39.9 °F 77% 29.57 in 10.0 mi SSW 19.6 mph 26.5 mph N/A   Clear
4:53 AM 46.9 °F - 39.9 °F 77% 29.58 in 10.0 mi SSW 21.9 mph 31.1 mph N/A   Clear
5:53 AM 46.9 °F - 39.0 °F 74% 29.61 in 10.0 mi SW 18.4 mph 29.9 mph N/A   Clear
6:53 AM 45.0 °F 37.4 °F 37.9 °F 76% 29.65 in 10.0 mi SW 18.4 mph 29.9 mph N/A   Clear
7:53 AM 42.1 °F 34.9 °F 33.1 °F 70% 29.70 in 10.0 mi SW 13.8 mph 28.8 mph N/A   Clear
8:53 AM 37.9 °F 28.9 °F 30.9 °F 76% 29.75 in 10.0 mi SW 16.1 mph 26.5 mph N/A   Clear
9:53 AM 36.0 °F 26.0 °F 26.1 °F 67% 29.81 in 10.0 mi WSW 17.3 mph 29.9 mph N/A   Clear
10:53 AM 36.0 °F 27.1 °F 27.0 °F 70% 29.83 in 10.0 mi WSW 13.8 mph 28.8 mph N/A   Clear
11:53 AM 34.0 °F 23.0 °F 25.0 °F 70% 29.85 in 10.0 mi WSW 18.4 mph 25.3 mph N/A   Clear
12:53 PM 34.0 °F 23.8 °F 24.1 °F 67% 29.85 in 10.0 mi WSW 16.1 mph 24.2 mph N/A   Clear
1:53 PM 33.1 °F 23.0 °F 23.0 °F 66% 29.88 in 10.0 mi SW 15.0 mph 20.7 mph N/A   Clear
2:53 PM 32.0 °F 24.2 °F 19.9 °F 61% 29.91 in 10.0 mi SW 9.2 mph 18.4 mph N/A   Clear
3:53 PM 30.0 °F 20.0 °F 19.0 °F 64% 29.94 in 10.0 mi WSW 12.7 mph - N/A   Clear
4:53 PM 30.0 °F 21.7 °F 19.0 °F 64% 29.96 in 10.0 mi WSW 9.2 mph - N/A   Clear
5:53 PM 28.9 °F 20.4 °F 18.0 °F 64% 29.96 in 10.0 mi West 9.2 mph - N/A   Overcast
7:53 PM 27.0 °F 17.3 °F 17.1 °F 66% 29.96 in 10.0 mi WNW 10.4 mph - N/A   Overcast
8:53 PM 26.1 °F 16.8 °F 15.1 °F 63% 30.00 in 10.0 mi West 9.2 mph - N/A   Overcast
9:53 PM 25.0 °F 13.6 °F 15.1 °F 66% 30.00 in 10.0 mi WNW 12.7 mph - N/A   Overcast
10:53 PM 24.1 °F 15.2 °F 15.1 °F 69% 29.98 in 10.0 mi NW 8.1 mph - N/A   Overcast